Time,TemperatureF,DewpointF,PressureIn,WindDirection,WindDirectionDegrees,WindSpeedMPH,WindSpeedGustMPH,Humidity,HourlyPrecipIn,Conditions,Clouds,dailyrainin,SoftwareType,DateUTC
2013-02-21 00:00:00,27.8,13.7,30.23,NW,314,0.0,0.0,55,0.00,,,0.00,Wunderground v.1.15,2013-02-21 05:00:00,
2013-02-21 00:01:00,27.8,13.3,30.23,NW,314,0.0,0.0,54,0.00,,,0.00,Wunderground v.1.15,2013-02-21 05:01:00,
2013-02-21 00:02:00,27.8,13.3,30.23,NW,314,0.0,0.0,54,0.00,,,0.00,Wunderground v.1.15,2013-02-21 05:02:00,
2013-02-21 00:05:00,27.8,13.3,30.23,NW,314,0.0,0.0,54,0.00,,,0.00,Wunderground v.1.15,2013-02-21 05:05:00,
2013-02-21 00:10:00,27.9,13.4,30.22,NW,314,0.0,0.0,54,0.00,,,0.00,Wunderground v.1.15,2013-02-21 05:10:00,
2013-02-21 00:15:00,28.2,13.2,30.22,NW,314,0.0,0.0,53,0.00,,,0.00,Wunderground v.1.15,2013-02-21 05:15:00,
2013-02-21 00:20:00,28.5,13.5,30.22,NW,314,0.0,0.0,53,0.00,,,0.00,Wunderground v.1.15,2013-02-21 05:20:00,
2013-02-21 00:26:00,28.5,13.5,30.23,NW,314,0.0,1.0,53,0.00,,,0.00,Wunderground v.1.15,2013-02-21 05:26:00,
2013-02-21 00:31:00,28.5,13.5,30.23,NW,314,0.0,0.0,53,0.00,,,0.00,Wunderground v.1.15,2013-02-21 05:31:00,
2013-02-21 00:36:00,28.4,13.0,30.23,NW,314,0.0,3.0,52,0.00,,,0.00,Wunderground v.1.15,2013-02-21 05:36:00,
2013-02-21 00:41:00,28.4,13.4,30.22,NW,314,0.0,0.0,53,0.00,,,0.00,Wunderground v.1.15,2013-02-21 05:41:00,
2013-02-21 00:46:00,28.2,13.2,30.22,NW,314,0.0,0.0,53,0.00,,,0.00,Wunderground v.1.15,2013-02-21 05:46:00,
2013-02-21 00:52:00,28.1,12.7,30.22,NW,314,0.0,0.0,52,0.00,,,0.00,Wunderground v.1.15,2013-02-21 05:52:00,
2013-02-21 00:58:00,28.2,13.2,30.23,NW,314,0.0,0.0,53,0.00,,,0.00,Wunderground v.1.15,2013-02-21 05:58:00,
2013-02-21 01:03:00,28.2,13.2,30.23,NW,314,0.0,0.0,53,0.00,,,0.00,Wunderground v.1.15,2013-02-21 06:03:00,
2013-02-21 01:08:00,28.2,12.4,30.23,NW,314,0.0,0.0,51,0.00,,,0.00,Wunderground v.1.15,2013-02-21 06:08:00,
2013-02-21 01:13:00,28.2,12.4,30.22,NW,314,0.0,0.0,51,0.00,,,0.00,Wunderground v.1.15,2013-02-21 06:13:00,
2013-02-21 01:18:00,28.4,13.0,30.22,NW,314,0.0,1.0,52,0.00,,,0.00,Wunderground v.1.15,2013-02-21 06:18:00,
2013-02-21 01:23:00,28.5,12.2,30.22,NW,314,0.0,0.0,50,0.00,,,0.00,Wunderground v.1.15,2013-02-21 06:23:00,
2013-02-21 01:28:00,28.7,12.4,30.21,NW,314,0.0,0.0,50,0.00,,,0.00,Wunderground v.1.15,2013-02-21 06:28:00,
2013-02-21 01:33:00,28.8,12.0,30.21,NW,314,1.0,1.0,49,0.00,,,0.00,Wunderground v.1.15,2013-02-21 06:33:00,
2013-02-21 01:38:00,29.0,11.7,30.21,NW,314,0.0,1.0,48,0.00,,,0.00,Wunderground v.1.15,2013-02-21 06:38:00,
2013-02-21 01:43:00,29.0,11.7,30.23,NW,314,0.0,0.0,48,0.00,,,0.00,Wunderground v.1.15,2013-02-21 06:43:00,
2013-02-21 01:48:00,28.8,12.5,30.23,NW,314,0.0,0.0,50,0.00,,,0.00,Wunderground v.1.15,2013-02-21 06:48:00,
2013-02-21 01:54:00,28.7,11.9,30.22,NW,314,0.0,1.0,49,0.00,,,0.00,Wunderground v.1.15,2013-02-21 06:54:00,
2013-02-21 01:59:00,28.7,12.4,30.22,NW,314,0.0,1.0,50,0.00,,,0.00,Wunderground v.1.15,2013-02-21 06:59:00,
2013-02-21 02:04:00,28.5,12.2,30.22,NW,314,0.0,0.0,50,0.00,,,0.00,Wunderground v.1.15,2013-02-21 07:04:00,
2013-02-21 02:09:00,28.5,11.7,30.22,NW,314,0.0,1.0,49,0.00,,,0.00,Wunderground v.1.15,2013-02-21 07:09:00,
2013-02-21 02:14:00,28.4,12.6,30.22,NW,314,0.0,0.0,51,0.00,,,0.00,Wunderground v.1.15,2013-02-21 07:14:00,
2013-02-21 02:19:00,28.2,12.4,30.22,NW,314,0.0,0.0,51,0.00,,,0.00,Wunderground v.1.15,2013-02-21 07:19:00,
2013-02-21 02:24:00,28.1,13.1,30.22,NW,314,1.0,1.0,53,0.00,,,0.00,Wunderground v.1.15,2013-02-21 07:24:00,
2013-02-21 02:29:00,27.9,13.0,30.22,NW,314,0.0,1.0,53,0.00,,,0.00,Wunderground v.1.15,2013-02-21 07:29:00,
2013-02-21 02:34:00,27.9,13.0,30.22,NW,314,0.0,1.0,53,0.00,,,0.00,Wunderground v.1.15,2013-02-21 07:34:00,
2013-02-21 02:39:00,27.9,12.5,30.22,NW,314,0.0,1.0,52,0.00,,,0.00,Wunderground v.1.15,2013-02-21 07:39:00,
2013-02-21 02:44:00,27.9,12.5,30.22,NW,314,0.0,2.0,52,0.00,,,0.00,Wunderground v.1.15,2013-02-21 07:44:00,
2013-02-21 02:49:00,27.9,12.5,30.22,NW,314,0.0,2.0,52,0.00,,,0.00,Wunderground v.1.15,2013-02-21 07:49:00,
2013-02-21 02:54:00,27.9,13.0,30.22,NW,314,0.0,1.0,53,0.00,,,0.00,Wunderground v.1.15,2013-02-21 07:54:00,
2013-02-21 02:59:00,27.9,12.5,30.22,NW,314,0.0,1.0,52,0.00,,,0.00,Wunderground v.1.15,2013-02-21 07:59:00,
2013-02-21 03:04:00,27.9,12.1,30.22,NW,314,0.0,1.0,51,0.00,,,0.00,Wunderground v.1.15,2013-02-21 08:04:00,
2013-02-21 03:09:00,27.8,12.9,30.23,NW,314,0.0,1.0,53,0.00,,,0.00,Wunderground v.1.15,2013-02-21 08:09:00,
2013-02-21 03:14:00,27.8,12.4,30.23,NW,314,0.0,1.0,52,0.00,,,0.00,Wunderground v.1.15,2013-02-21 08:14:00,
2013-02-21 03:19:00,27.8,12.9,30.23,NW,314,0.0,3.0,53,0.00,,,0.00,Wunderground v.1.15,2013-02-21 08:19:00,
2013-02-21 03:24:00,27.6,12.2,30.22,NW,315,0.0,2.0,52,0.00,,,0.00,Wunderground v.1.15,2013-02-21 08:24:00,
2013-02-21 03:29:00,27.6,12.2,30.22,NW,314,2.0,2.0,52,0.00,,,0.00,Wunderground v.1.15,2013-02-21 08:29:00,
2013-02-21 03:34:00,27.8,12.9,30.22,NW,314,0.0,1.0,53,0.00,,,0.00,Wunderground v.1.15,2013-02-21 08:34:00,
2013-02-21 03:39:00,27.8,12.9,30.23,NW,314,0.0,1.0,53,0.00,,,0.00,Wunderground v.1.15,2013-02-21 08:39:00,
2013-02-21 03:44:00,27.9,12.1,30.23,NW,314,0.0,2.0,51,0.00,,,0.00,Wunderground v.1.15,2013-02-21 08:44:00,
2013-02-21 03:49:00,28.2,12.4,30.23,NW,314,0.0,3.0,51,0.00,,,0.00,Wunderground v.1.15,2013-02-21 08:49:00,
2013-02-21 03:54:00,28.4,12.6,30.22,NW,314,0.0,2.0,51,0.00,,,0.00,Wunderground v.1.15,2013-02-21 08:54:00,
2013-02-21 03:59:00,28.5,12.6,30.22,NW,315,0.0,2.0,51,0.00,,,0.00,Wunderground v.1.15,2013-02-21 08:59:00,
2013-02-21 04:04:00,28.5,12.6,30.22,NW,315,0.0,3.0,51,0.00,,,0.00,Wunderground v.1.15,2013-02-21 09:04:00,
2013-02-21 04:09:00,28.4,12.6,30.22,NW,315,0.0,3.0,51,0.00,,,0.00,Wunderground v.1.15,2013-02-21 09:09:00,
2013-02-21 04:15:00,28.2,12.4,30.22,NW,315,0.0,2.0,51,0.00,,,0.00,Wunderground v.1.15,2013-02-21 09:15:00,
2013-02-21 04:20:00,28.2,12.4,30.22,NW,315,2.0,2.0,51,0.00,,,0.00,Wunderground v.1.15,2013-02-21 09:20:00,
2013-02-21 04:25:00,28.2,11.9,30.22,NNW,330,1.0,4.0,50,0.00,,,0.00,Wunderground v.1.15,2013-02-21 09:25:00,
2013-02-21 04:30:00,28.2,11.9,30.22,NNW,330,0.0,1.0,50,0.00,,,0.00,Wunderground v.1.15,2013-02-21 09:30:00,
2013-02-21 04:35:00,28.2,12.4,30.22,NNW,333,0.0,3.0,51,0.00,,,0.00,Wunderground v.1.15,2013-02-21 09:35:00,
2013-02-21 04:40:00,28.4,12.6,30.22,NNW,333,2.0,2.0,51,0.00,,,0.00,Wunderground v.1.15,2013-02-21 09:40:00,
2013-02-21 04:45:00,28.4,12.6,30.22,NNW,333,0.0,3.0,51,0.00,,,0.00,Wunderground v.1.15,2013-02-21 09:45:00,
2013-02-21 04:50:00,28.4,13.4,30.22,NNW,333,0.0,0.0,53,0.00,,,0.00,Wunderground v.1.15,2013-02-21 09:50:00,
2013-02-21 04:55:00,28.4,13.0,30.22,NNW,333,1.0,4.0,52,0.00,,,0.00,Wunderground v.1.15,2013-02-21 09:55:00,
2013-02-21 05:00:00,28.4,13.0,30.22,NNW,333,0.0,1.0,52,0.00,,,0.00,Wunderground v.1.15,2013-02-21 10:00:00,
2013-02-21 05:05:00,28.4,12.6,30.22,ENE,60,0.0,6.0,51,0.00,,,0.00,Wunderground v.1.15,2013-02-21 10:05:00,
2013-02-21 05:10:00,28.4,13.0,30.22,ENE,60,0.0,1.0,52,0.00,,,0.00,Wunderground v.1.15,2013-02-21 10:10:00,
2013-02-21 05:15:00,28.4,12.6,30.22,NNE,25,1.0,5.0,51,0.00,,,0.00,Wunderground v.1.15,2013-02-21 10:15:00,
2013-02-21 05:20:00,28.4,13.0,30.22,NNE,26,2.0,2.0,52,0.00,,,0.00,Wunderground v.1.15,2013-02-21 10:20:00,
2013-02-21 05:25:00,28.4,12.6,30.23,NNE,32,0.0,5.0,51,0.00,,,0.00,Wunderground v.1.15,2013-02-21 10:25:00,
2013-02-21 05:30:00,28.4,12.1,30.23,NNE,32,1.0,1.0,50,0.00,,,0.00,Wunderground v.1.15,2013-02-21 10:30:00,
2013-02-21 05:35:00,28.4,12.1,30.23,NE,53,1.0,5.0,50,0.00,,,0.00,Wunderground v.1.15,2013-02-21 10:35:00,
2013-02-21 05:40:00,28.2,12.4,30.23,NE,53,0.0,1.0,51,0.00,,,0.00,Wunderground v.1.15,2013-02-21 10:40:00,
2013-02-21 05:45:00,28.2,12.4,30.23,NE,39,3.0,5.0,51,0.00,,,0.00,Wunderground v.1.15,2013-02-21 10:45:00,
2013-02-21 05:50:00,28.2,12.4,30.23,NE,39,0.0,1.0,51,0.00,,,0.00,Wunderground v.1.15,2013-02-21 10:50:00,
2013-02-21 05:55:00,28.2,12.4,30.22,NNE,29,2.0,5.0,51,0.00,,,0.00,Wunderground v.1.15,2013-02-21 10:55:00,
2013-02-21 06:00:00,28.2,12.8,30.22,NNE,30,0.0,1.0,52,0.00,,,0.00,Wunderground v.1.15,2013-02-21 11:00:00,
2013-02-21 06:05:00,28.2,12.4,30.22,NE,47,0.0,6.0,51,0.00,,,0.00,Wunderground v.1.15,2013-02-21 11:05:00,
2013-02-21 06:10:00,28.2,12.4,30.23,NNE,25,0.0,1.0,51,0.00,,,0.00,Wunderground v.1.15,2013-02-21 11:10:00,
2013-02-21 06:15:00,28.2,12.4,30.23,NE,36,2.0,2.0,51,0.00,,,0.00,Wunderground v.1.15,2013-02-21 11:15:00,
2013-02-21 06:20:00,28.2,11.9,30.23,NE,36,0.0,1.0,50,0.00,,,0.00,Wunderground v.1.15,2013-02-21 11:20:00,
2013-02-21 06:25:00,28.4,12.6,30.24,NE,36,0.0,5.0,51,0.00,,,0.00,Wunderground v.1.15,2013-02-21 11:25:00,
2013-02-21 06:30:00,28.2,12.8,30.24,East,83,0.0,4.0,52,0.00,,,0.00,Wunderground v.1.15,2013-02-21 11:30:00,
2013-02-21 06:35:00,28.2,12.4,30.24,NNE,14,0.0,6.0,51,0.00,,,0.00,Wunderground v.1.15,2013-02-21 11:35:00,
2013-02-21 06:40:00,28.2,12.4,30.25,NNE,14,0.0,1.0,51,0.00,,,0.00,Wunderground v.1.15,2013-02-21 11:40:00,
2013-02-21 06:45:00,28.1,12.7,30.25,NNE,16,4.0,6.0,52,0.00,,,0.00,Wunderground v.1.15,2013-02-21 11:45:00,
2013-02-21 06:50:00,28.1,12.3,30.25,NNE,16,0.0,1.0,51,0.00,,,0.00,Wunderground v.1.15,2013-02-21 11:50:00,
2013-02-21 06:56:00,28.1,12.3,30.25,NNE,16,2.0,4.0,51,0.00,,,0.00,Wunderground v.1.15,2013-02-21 11:56:00,
2013-02-21 07:01:00,28.1,12.7,30.25,NNE,17,2.0,2.0,52,0.00,,,0.00,Wunderground v.1.15,2013-02-21 12:01:00,
2013-02-21 07:06:00,28.1,12.7,30.25,NNE,18,0.0,3.0,52,0.00,,,0.00,Wunderground v.1.15,2013-02-21 12:06:00,
2013-02-21 07:11:00,28.1,12.7,30.25,NNE,18,1.0,1.0,52,0.00,,,0.00,Wunderground v.1.15,2013-02-21 12:11:00,
2013-02-21 07:16:00,28.1,12.3,30.25,NNE,18,0.0,4.0,51,0.00,,,0.00,Wunderground v.1.15,2013-02-21 12:16:00,
2013-02-21 07:21:00,28.2,12.4,30.25,NNE,27,2.0,4.0,51,0.00,,,0.00,Wunderground v.1.15,2013-02-21 12:21:00,
2013-02-21 07:26:00,28.4,12.6,30.26,NE,50,0.0,5.0,51,0.00,,,0.00,Wunderground v.1.15,2013-02-21 12:26:00,
2013-02-21 07:31:00,28.7,13.3,30.26,NE,49,2.0,3.0,52,0.00,,,0.00,Wunderground v.1.15,2013-02-21 12:31:00,
2013-02-21 07:36:00,29.0,13.1,30.26,ENE,59,5.0,5.0,51,0.00,,,0.00,Wunderground v.1.15,2013-02-21 12:36:00,
2013-02-21 07:41:00,29.3,12.5,30.26,NE,49,0.0,5.0,49,0.00,,,0.00,Wunderground v.1.15,2013-02-21 12:41:00,
2013-02-21 07:46:00,29.7,13.3,30.26,NE,49,1.0,5.0,50,0.00,,,0.00,Wunderground v.1.15,2013-02-21 12:46:00,
2013-02-21 07:51:00,30.1,13.2,30.26,NE,55,1.0,4.0,49,0.00,,,0.00,Wunderground v.1.15,2013-02-21 12:51:00,
2013-02-21 07:56:00,30.4,13.0,30.26,East,79,3.0,9.0,48,0.00,,,0.00,Wunderground v.1.15,2013-02-21 12:56:00,
2013-02-21 08:01:00,30.9,13.5,30.26,North,3,0.0,4.0,48,0.00,,,0.00,Wunderground v.1.15,2013-02-21 13:01:00,
2013-02-21 08:06:00,31.3,13.4,30.26,NE,51,4.0,6.0,47,0.00,,,0.00,Wunderground v.1.15,2013-02-21 13:06:00,
2013-02-21 08:11:00,31.0,13.1,30.25,NNE,19,1.0,6.0,47,0.00,,,0.00,Wunderground v.1.15,2013-02-21 13:11:00,
2013-02-21 08:16:00,30.6,12.7,30.25,ENE,59,0.0,6.0,47,0.00,,,0.00,Wunderground v.1.15,2013-02-21 13:16:00,
2013-02-21 08:21:00,30.1,12.7,30.25,NE,37,0.0,4.0,48,0.00,,,0.00,Wunderground v.1.15,2013-02-21 13:21:00,
2013-02-21 08:26:00,30.0,13.1,30.26,East,89,2.0,7.0,49,0.00,,,0.00,Wunderground v.1.15,2013-02-21 13:26:00,
2013-02-21 08:31:00,30.6,13.2,30.26,ENE,70,3.0,3.0,48,0.00,,,0.00,Wunderground v.1.15,2013-02-21 13:31:00,
2013-02-21 08:36:00,31.5,13.6,30.26,NE,54,0.0,5.0,47,0.00,,,0.00,Wunderground v.1.15,2013-02-21 13:36:00,
2013-02-21 08:41:00,32.1,13.6,30.25,NNE,25,1.0,5.0,46,0.00,,,0.00,Wunderground v.1.15,2013-02-21 13:41:00,
2013-02-21 08:46:00,32.4,13.9,30.25,ENE,76,5.0,8.0,46,0.00,,,0.00,Wunderground v.1.15,2013-02-21 13:46:00,
2013-02-21 08:52:00,32.7,14.2,30.25,NE,35,0.0,10.0,46,0.00,,,0.00,Wunderground v.1.15,2013-02-21 13:52:00,
2013-02-21 08:57:00,33.1,14.5,30.25,ENE,68,4.0,10.0,46,0.00,,,0.00,Wunderground v.1.15,2013-02-21 13:57:00,
2013-02-21 09:02:00,33.2,14.1,30.25,ENE,60,0.0,5.0,45,0.00,,,0.00,Wunderground v.1.15,2013-02-21 14:02:00,
2013-02-21 09:07:00,33.7,14.1,30.25,East,81,0.0,7.0,44,0.00,,,0.00,Wunderground v.1.15,2013-02-21 14:07:00,
2013-02-21 09:12:00,34.1,14.9,30.26,East,85,5.0,7.0,45,0.00,,,0.00,Wunderground v.1.15,2013-02-21 14:12:00,
2013-02-21 09:17:00,34.7,15.0,30.26,ENE,75,1.0,7.0,44,0.00,,,0.00,Wunderground v.1.15,2013-02-21 14:17:00,
2013-02-21 09:22:00,34.4,14.2,30.26,ENE,77,0.0,4.0,43,0.00,,,0.00,Wunderground v.1.15,2013-02-21 14:22:00,
2013-02-21 09:27:00,34.9,15.2,30.27,East,88,5.0,7.0,44,0.00,,,0.00,Wunderground v.1.15,2013-02-21 14:27:00,
2013-02-21 09:32:00,34.9,16.2,30.27,East,80,0.0,4.0,46,0.00,,,0.00,Wunderground v.1.15,2013-02-21 14:32:00,
2013-02-21 09:37:00,35.3,14.5,30.27,East,88,1.0,10.0,42,0.00,,,0.00,Wunderground v.1.15,2013-02-21 14:37:00,
2013-02-21 09:42:00,35.6,15.3,30.25,East,89,3.0,4.0,43,0.00,,,0.00,Wunderground v.1.15,2013-02-21 14:42:00,
2013-02-21 09:47:00,35.8,16.0,30.25,East,80,5.0,12.0,44,0.00,,,0.00,Wunderground v.1.15,2013-02-21 14:47:00,
2013-02-21 09:52:00,36.0,15.1,30.25,East,91,4.0,7.0,42,0.00,,,0.00,Wunderground v.1.15,2013-02-21 14:52:00,
2013-02-21 09:57:00,36.5,16.6,30.25,NE,49,0.0,13.0,44,0.00,,,0.00,Wunderground v.1.15,2013-02-21 14:57:00,
2013-02-21 10:02:00,36.5,15.6,30.25,East,90,2.0,14.0,42,0.00,,,0.00,Wunderground v.1.15,2013-02-21 15:02:00,
2013-02-21 10:07:00,36.9,17.0,30.25,NE,49,0.0,14.0,44,0.00,,,0.00,Wunderground v.1.15,2013-02-21 15:07:00,
2013-02-21 10:12:00,37.5,15.9,30.24,East,83,5.0,13.0,41,0.00,,,0.00,Wunderground v.1.15,2013-02-21 15:12:00,
2013-02-21 10:17:00,37.5,15.3,30.24,East,88,5.0,13.0,40,0.00,,,0.00,Wunderground v.1.15,2013-02-21 15:17:00,
2013-02-21 10:22:00,38.0,15.8,30.24,East,99,11.0,11.0,40,0.00,,,0.00,Wunderground v.1.15,2013-02-21 15:22:00,
2013-02-21 10:27:00,37.5,14.8,30.24,ESE,103,7.0,15.0,39,0.00,,,0.00,Wunderground v.1.15,2013-02-21 15:27:00,
2013-02-21 10:32:00,37.5,15.3,30.24,ENE,61,3.0,9.0,40,0.00,,,0.00,Wunderground v.1.15,2013-02-21 15:32:00,
2013-02-21 10:37:00,38.2,16.0,30.24,ENE,72,0.0,9.0,40,0.00,,,0.00,Wunderground v.1.15,2013-02-21 15:37:00,
2013-02-21 10:42:00,38.3,15.5,30.24,NE,45,5.0,5.0,39,0.00,,,0.00,Wunderground v.1.15,2013-02-21 15:42:00,
2013-02-21 10:47:00,38.0,15.2,30.24,ESE,108,3.0,12.0,39,0.00,,,0.00,Wunderground v.1.15,2013-02-21 15:47:00,
2013-02-21 10:52:00,39.1,16.2,30.24,East,91,4.0,5.0,39,0.00,,,0.00,Wunderground v.1.15,2013-02-21 15:52:00,
2013-02-21 10:57:00,39.6,17.2,30.23,East,83,3.0,5.0,40,0.00,,,0.00,Wunderground v.1.15,2013-02-21 15:57:00,
2013-02-21 11:02:00,40.3,17.9,30.23,East,96,0.0,7.0,40,0.00,,,0.00,Wunderground v.1.15,2013-02-21 16:02:00,
2013-02-21 11:07:00,40.8,17.7,30.23,East,83,2.0,7.0,39,0.00,,,0.00,Wunderground v.1.15,2013-02-21 16:07:00,
2013-02-21 11:12:00,40.9,17.2,30.22,ENE,65,4.0,5.0,38,0.00,,,0.00,Wunderground v.1.15,2013-02-21 16:12:00,
2013-02-21 11:17:00,40.9,17.8,30.22,ENE,72,2.0,6.0,39,0.00,,,0.00,Wunderground v.1.15,2013-02-21 16:17:00,
2013-02-21 11:22:00,41.1,18.0,30.22,East,89,0.0,7.0,39,0.00,,,0.00,Wunderground v.1.15,2013-02-21 16:22:00,
2013-02-21 11:28:00,41.3,16.9,30.21,East,79,0.0,8.0,37,0.00,,,0.00,Wunderground v.1.15,2013-02-21 16:28:00,
2013-02-21 11:32:00,41.5,15.8,30.21,East,93,3.0,7.0,35,0.00,,,0.00,Wunderground v.1.15,2013-02-21 16:32:00,
2013-02-21 11:38:00,42.5,16.7,30.21,ESE,102,3.0,7.0,35,0.00,,,0.00,Wunderground v.1.15,2013-02-21 16:38:00,
2013-02-21 11:43:00,42.3,18.5,30.20,East,88,4.0,8.0,38,0.00,,,0.00,Wunderground v.1.15,2013-02-21 16:43:00,
2013-02-21 11:48:00,42.2,17.1,30.20,East,89,2.0,10.0,36,0.00,,,0.00,Wunderground v.1.15,2013-02-21 16:48:00,
2013-02-21 11:53:00,42.5,16.1,30.19,East,89,2.0,10.0,34,0.00,,,0.00,Wunderground v.1.15,2013-02-21 16:53:00,
2013-02-21 11:58:00,42.8,17.0,30.19,East,101,2.0,10.0,35,0.00,,,0.00,Wunderground v.1.15,2013-02-21 16:58:00,
2013-02-21 12:03:00,43.3,16.8,30.19,East,82,3.0,11.0,34,0.00,,,0.00,Wunderground v.1.15,2013-02-21 17:03:00,
2013-02-21 12:08:00,43.1,15.2,30.18,East,88,4.0,11.0,32,0.00,,,0.00,Wunderground v.1.15,2013-02-21 17:08:00,
2013-02-21 12:13:00,43.3,16.1,30.18,East,99,4.0,10.0,33,0.00,,,0.00,Wunderground v.1.15,2013-02-21 17:13:00,
2013-02-21 12:18:00,43.3,16.8,30.18,East,84,4.0,12.0,34,0.00,,,0.00,Wunderground v.1.15,2013-02-21 17:18:00,
2013-02-21 12:23:00,42.8,17.0,30.18,East,89,3.0,11.0,35,0.00,,,0.00,Wunderground v.1.15,2013-02-21 17:23:00,
2013-02-21 12:28:00,43.3,16.8,30.18,ESE,103,3.0,11.0,34,0.00,,,0.00,Wunderground v.1.15,2013-02-21 17:28:00,
2013-02-21 12:33:00,43.5,15.5,30.18,East,89,1.0,10.0,32,0.00,,,0.00,Wunderground v.1.15,2013-02-21 17:33:00,
2013-02-21 12:38:00,43.6,15.6,30.17,NNE,19,2.0,10.0,32,0.00,,,0.00,Wunderground v.1.15,2013-02-21 17:38:00,
2013-02-21 12:43:00,43.3,16.1,30.17,East,96,0.0,8.0,33,0.00,,,0.00,Wunderground v.1.15,2013-02-21 17:43:00,
2013-02-21 12:48:00,43.3,16.8,30.17,ESE,110,4.0,8.0,34,0.00,,,0.00,Wunderground v.1.15,2013-02-21 17:48:00,
2013-02-21 12:53:00,43.9,15.9,30.16,East,87,7.0,10.0,32,0.00,,,0.00,Wunderground v.1.15,2013-02-21 17:53:00,
2013-02-21 12:58:00,43.6,13.4,30.16,East,86,1.0,10.0,29,0.00,,,0.00,Wunderground v.1.15,2013-02-21 17:58:00,
2013-02-21 13:04:00,43.8,15.1,30.16,East,94,2.0,7.0,31,0.00,,,0.00,Wunderground v.1.15,2013-02-21 18:04:00,
2013-02-21 13:09:00,44.3,16.3,30.15,East,88,5.0,7.0,32,0.00,,,0.00,Wunderground v.1.15,2013-02-21 18:09:00,
2013-02-21 13:13:00,44.8,16.7,30.15,East,92,4.0,5.0,32,0.00,,,0.00,Wunderground v.1.15,2013-02-21 18:13:00,
2013-02-21 13:18:00,45.4,17.9,30.15,East,91,3.0,10.0,33,0.00,,,0.00,Wunderground v.1.15,2013-02-21 18:18:00,
2013-02-21 13:23:00,45.1,17.7,30.13,East,97,2.0,8.0,33,0.00,,,0.00,Wunderground v.1.15,2013-02-21 18:23:00,
2013-02-21 13:29:00,45.1,17.7,30.13,ESE,118,6.0,8.0,33,0.00,,,0.00,Wunderground v.1.15,2013-02-21 18:29:00,
2013-02-21 13:34:00,45.2,17.8,30.13,ESE,108,2.0,11.0,33,0.00,,,0.00,Wunderground v.1.15,2013-02-21 18:34:00,
2013-02-21 13:39:00,46.0,18.5,30.13,ESE,113,0.0,11.0,33,0.00,,,0.00,Wunderground v.1.15,2013-02-21 18:39:00,
2013-02-21 13:44:00,46.5,20.3,30.13,East,98,4.0,7.0,35,0.00,,,0.00,Wunderground v.1.15,2013-02-21 18:44:00,
2013-02-21 13:49:00,46.5,16.7,30.13,East,94,5.0,10.0,30,0.00,,,0.00,Wunderground v.1.15,2013-02-21 18:49:00,
2013-02-21 13:54:00,46.4,17.4,30.13,East,96,5.0,6.0,31,0.00,,,0.00,Wunderground v.1.15,2013-02-21 18:54:00,
2013-02-21 13:59:00,47.3,17.4,30.13,East,93,3.0,9.0,30,0.00,,,0.00,Wunderground v.1.15,2013-02-21 18:59:00,
2013-02-21 14:04:00,47.9,16.3,30.13,East,90,4.0,7.0,28,0.00,,,0.00,Wunderground v.1.15,2013-02-21 19:04:00,
2013-02-21 14:09:00,47.7,16.1,30.13,East,91,5.0,8.0,28,0.00,,,0.00,Wunderground v.1.15,2013-02-21 19:09:00,
2013-02-21 14:15:00,47.6,17.6,30.13,ESE,113,5.0,9.0,30,0.00,,,0.00,Wunderground v.1.15,2013-02-21 19:15:00,
2013-02-21 14:20:00,47.0,14.7,30.13,East,94,2.0,11.0,27,0.00,,,0.00,Wunderground v.1.15,2013-02-21 19:20:00,
2013-02-21 14:25:00,46.8,17.7,30.11,East,98,2.0,6.0,31,0.00,,,0.00,Wunderground v.1.15,2013-02-21 19:25:00,
2013-02-21 14:30:00,46.7,17.6,30.11,East,99,6.0,9.0,31,0.00,,,0.00,Wunderground v.1.15,2013-02-21 19:30:00,
2013-02-21 14:35:00,47.0,17.1,30.11,East,100,5.0,10.0,30,0.00,,,0.00,Wunderground v.1.15,2013-02-21 19:35:00,
2013-02-21 14:40:00,46.7,16.1,30.11,ESE,109,5.0,5.0,29,0.00,,,0.00,Wunderground v.1.15,2013-02-21 19:40:00,
2013-02-21 14:45:00,47.0,17.9,30.11,East,100,0.0,6.0,31,0.00,,,0.00,Wunderground v.1.15,2013-02-21 19:45:00,
2013-02-21 14:50:00,46.7,16.1,30.11,East,94,4.0,4.0,29,0.00,,,0.00,Wunderground v.1.15,2013-02-21 19:50:00,
2013-02-21 14:55:00,46.7,18.4,30.09,East,98,0.0,8.0,32,0.00,,,0.00,Wunderground v.1.15,2013-02-21 19:55:00,
2013-02-21 15:00:00,46.7,17.6,30.09,East,89,4.0,6.0,31,0.00,,,0.00,Wunderground v.1.15,2013-02-21 20:00:00,
2013-02-21 15:05:00,46.5,18.9,30.09,ESE,103,2.0,6.0,33,0.00,,,0.00,Wunderground v.1.15,2013-02-21 20:05:00,
2013-02-21 15:10:00,46.4,17.4,30.09,ESE,108,3.0,6.0,31,0.00,,,0.00,Wunderground v.1.15,2013-02-21 20:10:00,
2013-02-21 15:15:00,46.1,18.6,30.09,East,86,5.0,9.0,33,0.00,,,0.00,Wunderground v.1.15,2013-02-21 20:15:00,
2013-02-21 15:20:00,46.1,18.6,30.09,East,95,5.0,6.0,33,0.00,,,0.00,Wunderground v.1.15,2013-02-21 20:20:00,
2013-02-21 15:25:00,46.2,18.6,30.08,ESE,104,1.0,7.0,33,0.00,,,0.00,Wunderground v.1.15,2013-02-21 20:25:00,
2013-02-21 15:30:00,46.4,19.5,30.08,ESE,104,3.0,4.0,34,0.00,,,0.00,Wunderground v.1.15,2013-02-21 20:30:00,
2013-02-21 15:35:00,46.4,19.5,30.08,ESE,103,5.0,6.0,34,0.00,,,0.00,Wunderground v.1.15,2013-02-21 20:35:00,
2013-02-21 15:40:00,46.2,17.9,30.08,East,95,1.0,6.0,32,0.00,,,0.00,Wunderground v.1.15,2013-02-21 20:40:00,
2013-02-21 15:45:00,46.2,19.3,30.08,East,94,4.0,6.0,34,0.00,,,0.00,Wunderground v.1.15,2013-02-21 20:45:00,
2013-02-21 15:50:00,46.4,18.1,30.08,East,85,7.0,7.0,32,0.00,,,0.00,Wunderground v.1.15,2013-02-21 20:50:00,
2013-02-21 15:55:00,46.5,19.6,30.07,East,98,5.0,9.0,34,0.00,,,0.00,Wunderground v.1.15,2013-02-21 20:55:00,
2013-02-21 16:01:00,46.7,20.5,30.07,East,89,6.0,6.0,35,0.00,,,0.00,Wunderground v.1.15,2013-02-21 21:01:00,
2013-02-21 16:06:00,46.5,19.6,30.07,East,101,9.0,10.0,34,0.00,,,0.00,Wunderground v.1.15,2013-02-21 21:06:00,
2013-02-21 16:11:00,46.7,20.5,30.04,East,101,4.0,4.0,35,0.00,,,0.00,Wunderground v.1.15,2013-02-21 21:11:00,
2013-02-21 16:16:00,46.4,20.2,30.04,East,88,6.0,10.0,35,0.00,,,0.00,Wunderground v.1.15,2013-02-21 21:16:00,
2013-02-21 16:21:00,46.1,20.6,30.04,East,96,5.0,6.0,36,0.00,,,0.00,Wunderground v.1.15,2013-02-21 21:21:00,
2013-02-21 16:26:00,46.0,20.5,30.03,East,91,5.0,8.0,36,0.00,,,0.00,Wunderground v.1.15,2013-02-21 21:26:00,
2013-02-21 16:31:00,45.8,20.3,30.03,East,88,0.0,4.0,36,0.00,,,0.00,Wunderground v.1.15,2013-02-21 21:31:00,
2013-02-21 16:36:00,45.7,20.2,30.03,East,92,3.0,7.0,36,0.00,,,0.00,Wunderground v.1.15,2013-02-21 21:36:00,
2013-02-21 16:41:00,45.7,20.9,30.03,East,94,4.0,5.0,37,0.00,,,0.00,Wunderground v.1.15,2013-02-21 21:41:00,
2013-02-21 16:46:00,45.5,20.1,30.03,East,91,3.0,7.0,36,0.00,,,0.00,Wunderground v.1.15,2013-02-21 21:46:00,
2013-02-21 16:51:00,45.5,20.7,30.03,East,91,1.0,6.0,37,0.00,,,0.00,Wunderground v.1.15,2013-02-21 21:51:00,
2013-02-21 16:56:00,45.4,20.6,30.03,East,86,4.0,6.0,37,0.00,,,0.00,Wunderground v.1.15,2013-02-21 21:56:00,
2013-02-21 17:01:00,45.4,20.0,30.03,East,90,3.0,5.0,36,0.00,,,0.00,Wunderground v.1.15,2013-02-21 22:01:00,
2013-02-21 17:06:00,45.2,19.8,30.03,East,90,0.0,6.0,36,0.00,,,0.00,Wunderground v.1.15,2013-02-21 22:06:00,
2013-02-21 17:11:00,45.2,21.1,30.03,East,90,0.0,3.0,38,0.00,,,0.00,Wunderground v.1.15,2013-02-21 22:11:00,
2013-02-21 17:16:00,45.2,22.3,30.03,East,90,0.0,4.0,40,0.00,,,0.00,Wunderground v.1.15,2013-02-21 22:16:00,
2013-02-21 17:22:00,45.1,21.0,30.03,East,90,2.0,2.0,38,0.00,,,0.00,Wunderground v.1.15,2013-02-21 22:22:00,
2013-02-21 17:27:00,44.9,21.4,30.01,East,89,0.0,6.0,39,0.00,,,0.00,Wunderground v.1.15,2013-02-21 22:27:00,
2013-02-21 17:32:00,44.9,21.4,30.01,East,89,1.0,3.0,39,0.00,,,0.00,Wunderground v.1.15,2013-02-21 22:32:00,
2013-02-21 17:37:00,44.8,20.7,30.01,East,89,1.0,4.0,38,0.00,,,0.00,Wunderground v.1.15,2013-02-21 22:37:00,
2013-02-21 17:42:00,44.6,21.7,30.02,East,88,1.0,4.0,40,0.00,,,0.00,Wunderground v.1.15,2013-02-21 22:42:00,
2013-02-21 17:47:00,44.5,23.9,30.02,East,88,0.0,4.0,44,0.00,,,0.00,Wunderground v.1.15,2013-02-21 22:47:00,
2013-02-21 17:52:00,44.1,24.6,30.02,East,88,0.0,3.0,46,0.00,,,0.00,Wunderground v.1.15,2013-02-21 22:52:00,
2013-02-21 17:57:00,43.5,27.9,30.07,East,88,0.0,3.0,54,0.00,,,0.01,Wunderground v.1.15,2013-02-21 22:57:00,
2013-02-21 18:02:00,42.8,29.9,30.07,East,88,0.0,1.0,60,0.00,,,0.01,Wunderground v.1.15,2013-02-21 23:02:00,
2013-02-21 18:07:00,42.2,31.3,30.07,East,88,0.0,2.0,65,0.00,,,0.01,Wunderground v.1.15,2013-02-21 23:07:00,
2013-02-21 18:12:00,41.5,29.8,30.06,East,88,0.0,0.0,63,0.04,,,0.02,Wunderground v.1.15,2013-02-21 23:12:00,
2013-02-21 18:17:00,41.1,31.0,30.06,East,88,0.0,1.0,67,0.11,,,0.03,Wunderground v.1.15,2013-02-21 23:17:00,
2013-02-21 18:22:00,40.6,32.6,30.06,East,88,0.0,1.0,73,0.08,,,0.03,Wunderground v.1.15,2013-02-21 23:22:00,
2013-02-21 18:27:00,40.1,32.5,30.07,East,81,3.0,4.0,74,0.05,,,0.03,Wunderground v.1.15,2013-02-21 23:27:00,
2013-02-21 18:32:00,39.8,31.2,30.07,NNW,346,0.0,5.0,71,0.04,,,0.03,Wunderground v.1.15,2013-02-21 23:32:00,
2013-02-21 18:37:00,39.8,29.7,30.07,NNW,345,0.0,6.0,67,0.00,,,0.03,Wunderground v.1.15,2013-02-21 23:37:00,
2013-02-21 18:42:00,39.9,29.1,30.09,NNW,345,0.0,2.0,65,0.00,,,0.04,Wunderground v.1.15,2013-02-21 23:42:00,
2013-02-21 18:47:00,39.9,30.9,30.09,NNW,345,0.0,2.0,70,0.00,,,0.04,Wunderground v.1.15,2013-02-21 23:47:00,
2013-02-21 18:52:00,39.6,31.3,30.09,NNW,345,0.0,3.0,72,0.00,,,0.04,Wunderground v.1.15,2013-02-21 23:52:00,
2013-02-21 18:57:00,39.3,31.4,30.08,NNW,345,2.0,3.0,73,0.00,,,0.04,Wunderground v.1.15,2013-02-21 23:57:00,
2013-02-21 19:03:00,39.1,30.8,30.08,North,356,2.0,5.0,72,0.00,,,0.04,Wunderground v.1.15,2013-02-22 00:03:00,
2013-02-21 19:08:00,39.2,30.6,30.08,North,356,0.0,5.0,71,0.00,,,0.04,Wunderground v.1.15,2013-02-22 00:08:00,
2013-02-21 19:13:00,39.3,30.0,30.07,East,101,5.0,9.0,69,0.00,,,0.04,Wunderground v.1.15,2013-02-22 00:13:00,
2013-02-21 19:18:00,39.6,29.5,30.07,East,87,2.0,9.0,67,0.00,,,0.04,Wunderground v.1.15,2013-02-22 00:18:00,
2013-02-21 19:23:00,39.5,30.2,30.07,NE,48,1.0,6.0,69,0.00,,,0.04,Wunderground v.1.15,2013-02-22 00:23:00,
2013-02-21 19:28:00,39.5,29.1,30.05,East,94,5.0,6.0,66,0.00,,,0.05,Wunderground v.1.15,2013-02-22 00:28:00,
2013-02-21 19:33:00,39.3,30.0,30.05,ESE,105,3.0,6.0,69,0.00,,,0.05,Wunderground v.1.15,2013-02-22 00:33:00,
2013-02-21 19:38:00,39.1,30.8,30.05,East,98,2.0,6.0,72,0.00,,,0.05,Wunderground v.1.15,2013-02-22 00:38:00,
2013-02-21 19:43:00,38.8,31.2,30.06,East,97,0.0,4.0,74,0.04,,,0.06,Wunderground v.1.15,2013-02-22 00:43:00,
2013-02-21 19:48:00,38.6,30.7,30.06,East,97,4.0,5.0,73,0.04,,,0.06,Wunderground v.1.15,2013-02-22 00:48:00,
2013-02-21 19:53:00,38.5,30.9,30.06,East,85,0.0,6.0,74,0.04,,,0.06,Wunderground v.1.15,2013-02-22 00:53:00,
2013-02-21 19:58:00,38.3,31.1,30.06,East,85,0.0,6.0,75,0.00,,,0.06,Wunderground v.1.15,2013-02-22 00:58:00,
2013-02-21 20:03:00,38.5,30.9,30.06,East,85,3.0,3.0,74,0.00,,,0.07,Wunderground v.1.15,2013-02-22 01:03:00,
2013-02-21 20:08:00,38.0,31.7,30.06,East,85,4.0,6.0,78,0.00,,,0.07,Wunderground v.1.15,2013-02-22 01:08:00,
2013-02-21 20:13:00,38.0,31.4,30.09,East,85,3.0,4.0,77,0.07,,,0.08,Wunderground v.1.15,2013-02-22 01:13:00,
2013-02-21 20:18:00,37.8,31.9,30.09,East,87,0.0,8.0,79,0.09,,,0.09,Wunderground v.1.15,2013-02-22 01:18:00,
2013-02-21 20:23:00,37.6,31.7,30.09,East,88,3.0,5.0,79,0.15,,,0.10,Wunderground v.1.15,2013-02-22 01:23:00,
2013-02-21 20:28:00,37.6,32.0,30.09,East,88,0.0,5.0,80,0.07,,,0.11,Wunderground v.1.15,2013-02-22 01:28:00,
2013-02-21 20:33:00,37.3,32.3,30.09,ESE,112,5.0,6.0,82,0.14,,,0.12,Wunderground v.1.15,2013-02-22 01:33:00,
2013-02-21 20:38:00,37.0,32.3,30.11,ESE,117,0.0,6.0,83,0.10,,,0.13,Wunderground v.1.15,2013-02-22 01:38:00,
2013-02-21 20:43:00,37.2,32.5,30.11,ESE,117,0.0,2.0,83,0.42,,,0.16,Wunderground v.1.15,2013-02-22 01:43:00,
2013-02-21 20:48:00,37.0,32.9,30.11,ESE,112,0.0,5.0,85,0.37,,,0.19,Wunderground v.1.15,2013-02-22 01:48:00,
2013-02-21 20:53:00,36.9,32.8,30.13,ESE,106,5.0,6.0,85,0.31,,,0.22,Wunderground v.1.15,2013-02-22 01:53:00,
2013-02-21 20:58:00,36.6,33.1,30.13,East,94,8.0,8.0,87,0.15,,,0.23,Wunderground v.1.15,2013-02-22 01:58:00,
2013-02-21 21:03:00,36.6,32.8,30.13,East,88,4.0,8.0,86,0.12,,,0.24,Wunderground v.1.15,2013-02-22 02:03:00,
2013-02-21 21:08:00,36.6,33.1,30.12,East,89,3.0,8.0,87,0.09,,,0.25,Wunderground v.1.15,2013-02-22 02:08:00,
2013-02-21 21:13:00,36.5,33.3,30.12,East,89,3.0,6.0,88,0.08,,,0.25,Wunderground v.1.15,2013-02-22 02:13:00,
2013-02-21 21:18:00,36.5,33.3,30.12,East,89,0.0,6.0,88,0.05,,,0.25,Wunderground v.1.15,2013-02-22 02:18:00,
2013-02-21 21:23:00,36.6,33.7,30.10,East,89,3.0,6.0,89,0.00,,,0.25,Wunderground v.1.15,2013-02-22 02:23:00,
2013-02-21 21:28:00,36.5,33.6,30.10,East,93,2.0,6.0,89,0.00,,,0.25,Wunderground v.1.15,2013-02-22 02:28:00,
2013-02-21 21:33:00,36.5,33.8,30.10,East,93,4.0,4.0,90,0.00,,,0.26,Wunderground v.1.15,2013-02-22 02:33:00,
2013-02-21 21:38:00,36.5,33.8,30.13,East,93,0.0,4.0,90,0.00,,,0.26,Wunderground v.1.15,2013-02-22 02:38:00,
2013-02-21 21:44:00,36.6,33.9,30.13,East,93,3.0,4.0,90,0.00,,,0.26,Wunderground v.1.15,2013-02-22 02:44:00,
2013-02-21 21:49:00,36.5,34.1,30.13,East,93,3.0,5.0,91,0.05,,,0.27,Wunderground v.1.15,2013-02-22 02:49:00,
2013-02-21 21:54:00,36.5,34.1,30.13,East,93,2.0,4.0,91,0.09,,,0.28,Wunderground v.1.15,2013-02-22 02:54:00,
2013-02-21 21:59:00,36.5,34.1,30.13,East,93,0.0,5.0,91,0.10,,,0.29,Wunderground v.1.15,2013-02-22 02:59:00,
2013-02-21 22:04:00,36.5,34.4,30.13,East,93,0.0,3.0,92,0.17,,,0.31,Wunderground v.1.15,2013-02-22 03:04:00,
2013-02-21 22:09:00,36.6,34.5,30.13,East,93,0.0,3.0,92,0.19,,,0.32,Wunderground v.1.15,2013-02-22 03:09:00,
2013-02-21 22:14:00,36.6,34.5,30.13,East,93,0.0,3.0,92,0.12,,,0.33,Wunderground v.1.15,2013-02-22 03:14:00,
2013-02-21 22:19:00,36.8,34.7,30.13,East,93,0.0,3.0,92,0.13,,,0.34,Wunderground v.1.15,2013-02-22 03:19:00,
2013-02-21 22:24:00,36.8,35.0,30.12,East,93,0.0,0.0,93,0.16,,,0.36,Wunderground v.1.15,2013-02-22 03:24:00,
2013-02-21 22:29:00,36.9,35.1,30.12,East,93,4.0,4.0,93,0.10,,,0.36,Wunderground v.1.15,2013-02-22 03:29:00,
2013-02-21 22:34:00,37.3,35.7,30.12,East,93,2.0,5.0,94,0.06,,,0.37,Wunderground v.1.15,2013-02-22 03:34:00,
2013-02-21 22:39:00,37.8,36.2,30.12,East,93,3.0,5.0,94,0.06,,,0.37,Wunderground v.1.15,2013-02-22 03:39:00,
2013-02-21 22:44:00,37.6,36.0,30.12,East,93,4.0,5.0,94,0.09,,,0.38,Wunderground v.1.15,2013-02-22 03:44:00,
2013-02-21 22:49:00,37.5,35.9,30.12,ESE,107,3.0,7.0,94,0.19,,,0.38,Wunderground v.1.15,2013-02-22 03:49:00,
2013-02-21 22:54:00,37.3,36.0,30.10,SE,127,6.0,7.0,95,0.12,,,0.39,Wunderground v.1.15,2013-02-22 03:54:00,
2013-02-21 22:59:00,37.2,35.9,30.10,SE,127,5.0,7.0,95,0.08,,,0.40,Wunderground v.1.15,2013-02-22 03:59:00,
2013-02-21 23:04:00,37.2,35.9,30.10,SE,127,2.0,6.0,95,0.11,,,0.41,Wunderground v.1.15,2013-02-22 04:04:00,
2013-02-21 23:09:00,37.2,35.9,30.10,SE,127,2.0,6.0,95,0.09,,,0.42,Wunderground v.1.15,2013-02-22 04:09:00,
2013-02-21 23:14:00,37.3,36.3,30.10,East,97,5.0,5.0,96,0.09,,,0.42,Wunderground v.1.15,2013-02-22 04:14:00,
2013-02-21 23:19:00,37.3,36.3,30.10,East,94,1.0,6.0,96,0.06,,,0.42,Wunderground v.1.15,2013-02-22 04:19:00,
2013-02-21 23:24:00,37.2,36.2,30.10,East,95,5.0,5.0,96,0.04,,,0.42,Wunderground v.1.15,2013-02-22 04:24:00,
2013-02-21 23:29:00,37.2,36.2,30.10,East,95,2.0,5.0,96,0.00,,,0.42,Wunderground v.1.15,2013-02-22 04:29:00,
2013-02-21 23:34:00,37.5,36.5,30.10,East,95,3.0,6.0,96,0.00,,,0.43,Wunderground v.1.15,2013-02-22 04:34:00,
2013-02-21 23:39:00,37.3,36.3,30.05,East,94,4.0,6.0,96,0.00,,,0.43,Wunderground v.1.15,2013-02-22 04:39:00,
2013-02-21 23:44:00,37.0,36.0,30.05,East,94,2.0,4.0,96,0.00,,,0.43,Wunderground v.1.15,2013-02-22 04:44:00,
2013-02-21 23:49:00,37.0,36.0,30.05,East,94,3.0,4.0,96,0.00,,,0.43,Wunderground v.1.15,2013-02-22 04:49:00,
2013-02-21 23:54:00,36.9,35.9,30.09,East,94,0.0,3.0,96,0.00,,,0.43,Wunderground v.1.15,2013-02-22 04:54:00,
2013-02-21 23:59:00,37.3,36.5,30.09,East,94,0.0,3.0,97,0.00,,,0.43,Wunderground v.1.15,2013-02-22 04:59:00,